Gauley at Summersville (cfs) [ USA-WVR ]

Edit Gauge

Current Conditions

Reading of "n/a" = frozen gauge or gauge error.
Reading Trend Type Updated
137 cfs 0 cfs/hr Flow 01h15m

Station Description

AW Gauge ID: 8515
Source: virtual
Station: 8515
Enabled yes
Description:StreamTeam Member: Matt Muir The virtual Gauley gauge is based on the rating table published by the USGS in Oct 2003. Funding to update the rating table is no longer available. Discharge values calculated by this virtual gauge are thus calculated based on channel bed morphology as of 2003.
Calculation:$g = $gauge[1434]->getValue(GMETRIC_STAGE,0); if ($g >= 8.9) { $x=(-0.0344*pow($g,5))+(2.6808*pow($g,4))-(77.748*pow($g,3))+(1150.7*pow($g,2))-(7873.3*$g)+19890; } elseif ($g >= 7.0) { $x=(69.822*pow($g,2))-(656.23*$g)+1354.5; } elseif ($g >= 6.5) { $x=(171.43*pow($g,2))-(2104.1*$g)+6474; } else { $x=40; } $flow = $x;
Data is courtesy of AW's Stream Team program. This data is calculated based on other gauges and information provided by the Stream Team. This data, and any river data, should be used with caution.

Information

Flow

Gauge History

Times listed in GMT 24h, ET and PT hours provided for convenience Graphs in GMT. Readings of "n/a" constitute a frozen gauge or gauge error.
Reading Updated (GMT) Eastern Pacific Comment
136.65 09/02/2014 22:26:08 Sep 2 06:26 pm Sep 2 3:26 pm
136.65 09/02/2014 21:26:24 Sep 2 05:26 pm Sep 2 2:26 pm
136.65 09/02/2014 20:26:40 Sep 2 04:26 pm Sep 2 1:26 pm
133.81 09/02/2014 19:26:56 Sep 2 03:26 pm Sep 2 12:26 pm
136.65 09/02/2014 18:27:12 Sep 2 02:27 pm Sep 2 11:27 am
133.81 09/02/2014 17:27:28 Sep 2 01:27 pm Sep 2 10:27 am
136.65 09/02/2014 16:27:44 Sep 2 12:27 pm Sep 2 9:27 am
136.65 09/02/2014 15:25:52 Sep 2 11:25 am Sep 2 8:25 am
136.65 09/02/2014 14:26:08 Sep 2 10:26 am Sep 2 7:26 am
133.81 09/02/2014 13:26:24 Sep 2 09:26 am Sep 2 6:26 am
136.65 09/02/2014 12:26:40 Sep 2 08:26 am Sep 2 5:26 am
136.65 09/02/2014 11:26:56 Sep 2 07:26 am Sep 2 4:26 am
133.81 09/02/2014 10:27:12 Sep 2 06:27 am Sep 2 3:27 am
133.81 09/02/2014 09:27:28 Sep 2 05:27 am Sep 2 2:27 am
136.65 09/02/2014 08:27:44 Sep 2 04:27 am Sep 2 1:27 am
136.65 09/02/2014 07:25:52 Sep 2 03:25 am Sep 2 12:25 am
136.65 09/02/2014 06:26:08 Sep 2 02:26 am Sep 1 11:26 pm
133.81 09/02/2014 05:26:24 Sep 2 01:26 am Sep 1 10:26 pm
136.65 09/02/2014 04:26:40 Sep 2 12:26 am Sep 1 9:26 pm
136.65 09/02/2014 03:26:56 Sep 1 11:26 pm Sep 1 8:26 pm
142.43 09/02/2014 01:27:28 Sep 1 09:27 pm Sep 1 6:27 pm
195.13 09/01/2014 23:25:52 Sep 1 07:25 pm Sep 1 4:25 pm
195.13 09/01/2014 22:26:08 Sep 1 06:26 pm Sep 1 3:26 pm
195.13 09/01/2014 21:26:24 Sep 1 05:26 pm Sep 1 2:26 pm
221.73 09/01/2014 20:26:40 Sep 1 04:26 pm Sep 1 1:26 pm
231.93 09/01/2014 19:26:56 Sep 1 03:26 pm Sep 1 12:26 pm
235.36 09/01/2014 18:27:12 Sep 1 02:27 pm Sep 1 11:27 am
231.93 09/01/2014 17:27:28 Sep 1 01:27 pm Sep 1 10:27 am
231.93 09/01/2014 16:27:44 Sep 1 12:27 pm Sep 1 9:27 am
231.93 09/01/2014 15:25:52 Sep 1 11:25 am Sep 1 8:25 am
231.93 09/01/2014 14:26:08 Sep 1 10:26 am Sep 1 7:26 am
231.93 09/01/2014 13:26:24 Sep 1 09:26 am Sep 1 6:26 am
231.93 09/01/2014 12:26:40 Sep 1 08:26 am Sep 1 5:26 am
231.93 09/01/2014 11:26:56 Sep 1 07:26 am Sep 1 4:26 am
231.93 09/01/2014 10:27:12 Sep 1 06:27 am Sep 1 3:27 am
231.93 09/01/2014 09:27:28 Sep 1 05:27 am Sep 1 2:27 am
231.93 09/01/2014 08:27:44 Sep 1 04:27 am Sep 1 1:27 am
231.93 09/01/2014 07:25:52 Sep 1 03:25 am Sep 1 12:25 am
231.93 09/01/2014 06:26:08 Sep 1 02:26 am Aug 31 11:26 pm
228.51 09/01/2014 05:26:24 Sep 1 01:26 am Aug 31 10:26 pm
231.93 09/01/2014 04:26:40 Sep 1 12:26 am Aug 31 9:26 pm
231.93 09/01/2014 01:27:28 Aug 31 09:27 pm Aug 31 6:27 pm
231.93 08/31/2014 23:25:52 Aug 31 07:25 pm Aug 31 4:25 pm
231.93 08/31/2014 22:26:08 Aug 31 06:26 pm Aug 31 3:26 pm
231.93 08/31/2014 21:26:24 Aug 31 05:26 pm Aug 31 2:26 pm
231.93 08/31/2014 20:26:40 Aug 31 04:26 pm Aug 31 1:26 pm
235.36 08/31/2014 19:26:56 Aug 31 03:26 pm Aug 31 12:26 pm
228.51 08/31/2014 18:27:12 Aug 31 02:27 pm Aug 31 11:27 am
231.93 08/31/2014 17:27:28 Aug 31 01:27 pm Aug 31 10:27 am
231.93 08/31/2014 16:27:44 Aug 31 12:27 pm Aug 31 9:27 am
231.93 08/31/2014 15:25:52 Aug 31 11:25 am Aug 31 8:25 am
231.93 08/31/2014 14:26:08 Aug 31 10:26 am Aug 31 7:26 am
231.93 08/31/2014 13:26:24 Aug 31 09:26 am Aug 31 6:26 am
231.93 08/31/2014 12:26:40 Aug 31 08:26 am Aug 31 5:26 am
231.93 08/31/2014 11:26:56 Aug 31 07:26 am Aug 31 4:26 am
231.93 08/31/2014 10:27:12 Aug 31 06:27 am Aug 31 3:27 am
235.36 08/31/2014 09:27:28 Aug 31 05:27 am Aug 31 2:27 am
231.93 08/31/2014 08:27:44 Aug 31 04:27 am Aug 31 1:27 am
231.93 08/31/2014 07:25:52 Aug 31 03:25 am Aug 31 12:25 am
231.93 08/31/2014 06:26:08 Aug 31 02:26 am Aug 30 11:26 pm
231.93 08/31/2014 05:26:24 Aug 31 01:26 am Aug 30 10:26 pm
231.93 08/31/2014 04:26:40 Aug 31 12:26 am Aug 30 9:26 pm
231.93 08/31/2014 03:26:56 Aug 30 11:26 pm Aug 30 8:26 pm
231.93 08/31/2014 02:27:12 Aug 30 10:27 pm Aug 30 7:27 pm
228.51 08/30/2014 23:25:52 Aug 30 07:25 pm Aug 30 4:25 pm
231.93 08/30/2014 22:26:08 Aug 30 06:26 pm Aug 30 3:26 pm
231.93 08/30/2014 21:26:24 Aug 30 05:26 pm Aug 30 2:26 pm
231.93 08/30/2014 20:26:40 Aug 30 04:26 pm Aug 30 1:26 pm
231.93 08/30/2014 19:26:56 Aug 30 03:26 pm Aug 30 12:26 pm
231.93 08/30/2014 18:27:12 Aug 30 02:27 pm Aug 30 11:27 am
235.36 08/30/2014 17:27:28 Aug 30 01:27 pm Aug 30 10:27 am
231.93 08/30/2014 16:27:44 Aug 30 12:27 pm Aug 30 9:27 am
235.36 08/30/2014 15:25:52 Aug 30 11:25 am Aug 30 8:25 am
231.93 08/30/2014 14:26:08 Aug 30 10:26 am Aug 30 7:26 am
231.93 08/30/2014 13:26:24 Aug 30 09:26 am Aug 30 6:26 am
231.93 08/30/2014 11:26:56 Aug 30 07:26 am Aug 30 4:26 am
231.93 08/30/2014 10:27:12 Aug 30 06:27 am Aug 30 3:27 am
231.93 08/30/2014 09:27:28 Aug 30 05:27 am Aug 30 2:27 am
231.93 08/30/2014 08:27:44 Aug 30 04:27 am Aug 30 1:27 am
231.93 08/30/2014 07:25:52 Aug 30 03:25 am Aug 30 12:25 am
231.93 08/30/2014 06:26:08 Aug 30 02:26 am Aug 29 11:26 pm
231.93 08/30/2014 05:26:24 Aug 30 01:26 am Aug 29 10:26 pm
231.93 08/30/2014 04:26:40 Aug 30 12:26 am Aug 29 9:26 pm
235.36 08/30/2014 02:27:12 Aug 29 10:27 pm Aug 29 7:27 pm
235.36 08/30/2014 00:27:44 Aug 29 08:27 pm Aug 29 5:27 pm
235.36 08/29/2014 23:25:52 Aug 29 07:25 pm Aug 29 4:25 pm
238.80 08/29/2014 22:26:08 Aug 29 06:26 pm Aug 29 3:26 pm
235.36 08/29/2014 21:26:24 Aug 29 05:26 pm Aug 29 2:26 pm
235.36 08/29/2014 20:26:40 Aug 29 04:26 pm Aug 29 1:26 pm
235.36 08/29/2014 19:26:56 Aug 29 03:26 pm Aug 29 12:26 pm
235.36 08/29/2014 18:27:12 Aug 29 02:27 pm Aug 29 11:27 am
238.80 08/29/2014 17:27:28 Aug 29 01:27 pm Aug 29 10:27 am
238.80 08/29/2014 16:27:44 Aug 29 12:27 pm Aug 29 9:27 am
235.36 08/29/2014 15:25:52 Aug 29 11:25 am Aug 29 8:25 am
235.36 08/29/2014 14:26:08 Aug 29 10:26 am Aug 29 7:26 am
235.36 08/29/2014 13:26:24 Aug 29 09:26 am Aug 29 6:26 am
235.36 08/29/2014 12:26:40 Aug 29 08:26 am Aug 29 5:26 am
235.36 08/29/2014 11:26:56 Aug 29 07:26 am Aug 29 4:26 am
235.36 08/29/2014 10:27:12 Aug 29 06:27 am Aug 29 3:27 am
238.80 08/29/2014 09:27:28 Aug 29 05:27 am Aug 29 2:27 am
238.80 08/29/2014 08:27:44 Aug 29 04:27 am Aug 29 1:27 am
235.36 08/29/2014 07:25:52 Aug 29 03:25 am Aug 29 12:25 am
235.36 08/29/2014 06:26:08 Aug 29 02:26 am Aug 28 11:26 pm
238.80 08/29/2014 05:26:24 Aug 29 01:26 am Aug 28 10:26 pm
235.36 08/29/2014 04:26:40 Aug 29 12:26 am Aug 28 9:26 pm
238.80 08/29/2014 03:26:56 Aug 28 11:26 pm Aug 28 8:26 pm
242.26 08/29/2014 01:27:28 Aug 28 09:27 pm Aug 28 6:27 pm
245.73 08/28/2014 23:25:52 Aug 28 07:25 pm Aug 28 4:25 pm
245.73 08/28/2014 22:26:08 Aug 28 06:26 pm Aug 28 3:26 pm
249.22 08/28/2014 21:26:24 Aug 28 05:26 pm Aug 28 2:26 pm
249.22 08/28/2014 20:26:40 Aug 28 04:26 pm Aug 28 1:26 pm
249.22 08/28/2014 19:26:56 Aug 28 03:26 pm Aug 28 12:26 pm
256.23 08/28/2014 18:27:12 Aug 28 02:27 pm Aug 28 11:27 am
252.72 08/28/2014 17:27:28 Aug 28 01:27 pm Aug 28 10:27 am
252.72 08/28/2014 16:27:44 Aug 28 12:27 pm Aug 28 9:27 am
252.72 08/28/2014 15:25:52 Aug 28 11:25 am Aug 28 8:25 am
252.72 08/28/2014 14:26:08 Aug 28 10:26 am Aug 28 7:26 am
252.72 08/28/2014 13:26:24 Aug 28 09:26 am Aug 28 6:26 am
252.72 08/28/2014 12:26:40 Aug 28 08:26 am Aug 28 5:26 am
252.72 08/28/2014 11:26:56 Aug 28 07:26 am Aug 28 4:26 am
252.72 08/28/2014 10:27:12 Aug 28 06:27 am Aug 28 3:27 am
252.72 08/28/2014 09:27:28 Aug 28 05:27 am Aug 28 2:27 am
252.72 08/28/2014 08:27:44 Aug 28 04:27 am Aug 28 1:27 am
252.72 08/28/2014 07:25:52 Aug 28 03:25 am Aug 28 12:25 am
252.72 08/28/2014 06:26:08 Aug 28 02:26 am Aug 27 11:26 pm
249.22 08/28/2014 05:26:24 Aug 28 01:26 am Aug 27 10:26 pm
249.22 08/28/2014 04:26:40 Aug 28 12:26 am Aug 27 9:26 pm
249.22 08/28/2014 02:27:12 Aug 27 10:27 pm Aug 27 7:27 pm
252.72 08/27/2014 23:25:52 Aug 27 07:25 pm Aug 27 4:25 pm
252.72 08/27/2014 22:26:08 Aug 27 06:26 pm Aug 27 3:26 pm
252.72 08/27/2014 21:26:24 Aug 27 05:26 pm Aug 27 2:26 pm
252.72 08/27/2014 20:26:40 Aug 27 04:26 pm Aug 27 1:26 pm
252.72 08/27/2014 19:26:56 Aug 27 03:26 pm Aug 27 12:26 pm
252.72 08/27/2014 18:27:12 Aug 27 02:27 pm Aug 27 11:27 am
252.72 08/27/2014 17:27:28 Aug 27 01:27 pm Aug 27 10:27 am
256.23 08/27/2014 16:27:44 Aug 27 12:27 pm Aug 27 9:27 am
256.23 08/27/2014 15:25:52 Aug 27 11:25 am Aug 27 8:25 am
228.51 08/27/2014 14:26:08 Aug 27 10:26 am Aug 27 7:26 am
214.99 08/27/2014 13:26:24 Aug 27 09:26 am Aug 27 6:26 am
208.32 08/27/2014 12:26:40 Aug 27 08:26 am Aug 27 5:26 am
201.70 08/27/2014 11:26:56 Aug 27 07:26 am Aug 27 4:26 am
205.00 08/27/2014 10:27:12 Aug 27 06:27 am Aug 27 3:27 am
201.70 08/27/2014 09:27:28 Aug 27 05:27 am Aug 27 2:27 am
205.00 08/27/2014 08:27:44 Aug 27 04:27 am Aug 27 1:27 am
201.70 08/27/2014 05:26:24 Aug 27 01:26 am Aug 26 10:26 pm
201.70 08/27/2014 04:26:40 Aug 27 12:26 am Aug 26 9:26 pm
201.70 08/27/2014 02:27:12 Aug 26 10:27 pm Aug 26 7:27 pm
201.70 08/27/2014 01:27:28 Aug 26 09:27 pm Aug 26 6:27 pm
201.70 08/26/2014 23:25:52 Aug 26 07:25 pm Aug 26 4:25 pm
205.00 08/26/2014 22:26:08 Aug 26 06:26 pm Aug 26 3:26 pm
205.00 08/26/2014 21:26:24 Aug 26 05:26 pm Aug 26 2:26 pm
211.65 08/26/2014 20:26:40 Aug 26 04:26 pm Aug 26 1:26 pm
263.30 08/26/2014 19:26:56 Aug 26 03:26 pm Aug 26 12:26 pm
263.30 08/26/2014 18:27:12 Aug 26 02:27 pm Aug 26 11:27 am
263.30 08/26/2014 17:27:28 Aug 26 01:27 pm Aug 26 10:27 am
263.30 08/26/2014 16:27:44 Aug 26 12:27 pm Aug 26 9:27 am
263.30 08/26/2014 15:25:52 Aug 26 11:25 am Aug 26 8:25 am
263.30 08/26/2014 14:26:08 Aug 26 10:26 am Aug 26 7:26 am
266.85 08/26/2014 13:26:24 Aug 26 09:26 am Aug 26 6:26 am
263.30 08/26/2014 12:26:40 Aug 26 08:26 am Aug 26 5:26 am
263.30 08/26/2014 11:26:56 Aug 26 07:26 am Aug 26 4:26 am
263.30 08/26/2014 10:27:12 Aug 26 06:27 am Aug 26 3:27 am
263.30 08/26/2014 09:27:28 Aug 26 05:27 am Aug 26 2:27 am
263.30 08/26/2014 08:27:44 Aug 26 04:27 am Aug 26 1:27 am
263.30 08/26/2014 07:25:52 Aug 26 03:25 am Aug 26 12:25 am
259.76 08/26/2014 06:26:08 Aug 26 02:26 am Aug 25 11:26 pm
263.30 08/26/2014 05:26:24 Aug 26 01:26 am Aug 25 10:26 pm
263.30 08/26/2014 04:26:40 Aug 26 12:26 am Aug 25 9:26 pm
263.30 08/26/2014 01:27:28 Aug 25 09:27 pm Aug 25 6:27 pm
263.30 08/25/2014 23:25:52 Aug 25 07:25 pm Aug 25 4:25 pm
263.30 08/25/2014 22:26:08 Aug 25 06:26 pm Aug 25 3:26 pm
263.30 08/25/2014 21:26:24 Aug 25 05:26 pm Aug 25 2:26 pm
263.30 08/25/2014 20:26:40 Aug 25 04:26 pm Aug 25 1:26 pm
259.76 08/25/2014 19:26:56 Aug 25 03:26 pm Aug 25 12:26 pm
259.76 08/25/2014 18:27:12 Aug 25 02:27 pm Aug 25 11:27 am
40.00 08/25/2014 17:27:28 Aug 25 01:27 pm Aug 25 10:27 am
88.56 08/25/2014 16:27:44 Aug 25 12:27 pm Aug 25 9:27 am
306.88 08/25/2014 15:25:52 Aug 25 11:25 am Aug 25 8:25 am
310.60 08/25/2014 14:26:08 Aug 25 10:26 am Aug 25 7:26 am
310.60 08/25/2014 13:26:24 Aug 25 09:26 am Aug 25 6:26 am
306.88 08/25/2014 12:26:40 Aug 25 08:26 am Aug 25 5:26 am
306.88 08/25/2014 11:26:56 Aug 25 07:26 am Aug 25 4:26 am
310.60 08/25/2014 10:27:12 Aug 25 06:27 am Aug 25 3:27 am
306.88 08/25/2014 09:27:28 Aug 25 05:27 am Aug 25 2:27 am
306.88 08/25/2014 08:27:44 Aug 25 04:27 am Aug 25 1:27 am
306.88 08/25/2014 07:25:52 Aug 25 03:25 am Aug 25 12:25 am
310.60 08/25/2014 06:26:08 Aug 25 02:26 am Aug 24 11:26 pm
310.60 08/25/2014 05:26:24 Aug 25 01:26 am Aug 24 10:26 pm
310.60 08/25/2014 04:26:40 Aug 25 12:26 am Aug 24 9:26 pm
306.88 08/25/2014 01:27:28 Aug 24 09:27 pm Aug 24 6:27 pm
306.88 08/24/2014 23:25:52 Aug 24 07:25 pm Aug 24 4:25 pm
306.88 08/24/2014 22:26:08 Aug 24 06:26 pm Aug 24 3:26 pm
306.88 08/24/2014 21:26:24 Aug 24 05:26 pm Aug 24 2:26 pm
306.88 08/24/2014 20:26:40 Aug 24 04:26 pm Aug 24 1:26 pm
310.60 08/24/2014 19:26:56 Aug 24 03:26 pm Aug 24 12:26 pm
306.88 08/24/2014 18:27:12 Aug 24 02:27 pm Aug 24 11:27 am
306.88 08/24/2014 17:27:28 Aug 24 01:27 pm Aug 24 10:27 am
310.60 08/24/2014 16:27:44 Aug 24 12:27 pm Aug 24 9:27 am
310.60 08/24/2014 15:25:52 Aug 24 11:25 am Aug 24 8:25 am
310.60 08/24/2014 14:26:08 Aug 24 10:26 am Aug 24 7:26 am
310.60 08/24/2014 13:26:24 Aug 24 09:26 am Aug 24 6:26 am
306.88 08/24/2014 12:26:40 Aug 24 08:26 am Aug 24 5:26 am
306.88 08/24/2014 11:26:56 Aug 24 07:26 am Aug 24 4:26 am
306.88 08/24/2014 10:27:12 Aug 24 06:27 am Aug 24 3:27 am
306.88 08/24/2014 09:27:28 Aug 24 05:27 am Aug 24 2:27 am
306.88 08/24/2014 08:27:44 Aug 24 04:27 am Aug 24 1:27 am
306.88 08/24/2014 07:25:52 Aug 24 03:25 am Aug 24 12:25 am
310.60 08/24/2014 06:26:08 Aug 24 02:26 am Aug 23 11:26 pm
306.88 08/24/2014 05:26:24 Aug 24 01:26 am Aug 23 10:26 pm
306.88 08/24/2014 04:26:40 Aug 24 12:26 am Aug 23 9:26 pm
306.88 08/24/2014 03:26:56 Aug 23 11:26 pm Aug 23 8:26 pm
310.60 08/24/2014 01:27:28 Aug 23 09:27 pm Aug 23 6:27 pm
306.88 08/24/2014 00:27:44 Aug 23 08:27 pm Aug 23 5:27 pm
306.88 08/23/2014 23:25:52 Aug 23 07:25 pm Aug 23 4:25 pm
306.88 08/23/2014 22:26:08 Aug 23 06:26 pm Aug 23 3:26 pm
306.88 08/23/2014 21:26:24 Aug 23 05:26 pm Aug 23 2:26 pm
306.88 08/23/2014 20:26:40 Aug 23 04:26 pm Aug 23 1:26 pm
306.88 08/23/2014 19:26:56 Aug 23 03:26 pm Aug 23 12:26 pm
306.88 08/23/2014 18:27:12 Aug 23 02:27 pm Aug 23 11:27 am
295.79 08/23/2014 17:27:28 Aug 23 01:27 pm Aug 23 10:27 am
288.47 08/23/2014 16:27:44 Aug 23 12:27 pm Aug 23 9:27 am
284.83 08/23/2014 15:25:52 Aug 23 11:25 am Aug 23 8:25 am
288.47 08/23/2014 14:26:08 Aug 23 10:26 am Aug 23 7:26 am
284.83 08/23/2014 13:26:24 Aug 23 09:26 am Aug 23 6:26 am
195.13 08/23/2014 12:26:40 Aug 23 08:26 am Aug 23 5:26 am
201.70 08/23/2014 11:26:56 Aug 23 07:26 am Aug 23 4:26 am
201.70 08/23/2014 10:27:12 Aug 23 06:27 am Aug 23 3:27 am
201.70 08/23/2014 09:27:28 Aug 23 05:27 am Aug 23 2:27 am
201.70 08/23/2014 08:27:44 Aug 23 04:27 am Aug 23 1:27 am
198.41 08/23/2014 07:25:52 Aug 23 03:25 am Aug 23 12:25 am
198.41 08/23/2014 06:26:08 Aug 23 02:26 am Aug 22 11:26 pm
198.41 08/23/2014 05:26:24 Aug 23 01:26 am Aug 22 10:26 pm
198.41 08/23/2014 04:26:40 Aug 23 12:26 am Aug 22 9:26 pm
191.87 08/23/2014 03:26:56 Aug 22 11:26 pm Aug 22 8:26 pm
188.62 08/23/2014 01:27:28 Aug 22 09:27 pm Aug 22 6:27 pm
185.39 08/22/2014 23:25:52 Aug 22 07:25 pm Aug 22 4:25 pm
188.62 08/22/2014 22:26:08 Aug 22 06:26 pm Aug 22 3:26 pm
188.62 08/22/2014 21:26:24 Aug 22 05:26 pm Aug 22 2:26 pm
188.62 08/22/2014 20:26:40 Aug 22 04:26 pm Aug 22 1:26 pm
114.89 08/22/2014 19:26:56 Aug 22 03:26 pm Aug 22 12:26 pm
42.83 08/22/2014 18:27:12 Aug 22 02:27 pm Aug 22 11:27 am
211.65 08/22/2014 17:27:28 Aug 22 01:27 pm Aug 22 10:27 am
211.65 08/22/2014 16:27:44 Aug 22 12:27 pm Aug 22 9:27 am
214.99 08/22/2014 15:25:52 Aug 22 11:25 am Aug 22 8:25 am
211.65 08/22/2014 14:26:08 Aug 22 10:26 am Aug 22 7:26 am
466.67 08/22/2014 13:26:24 Aug 22 09:26 am Aug 22 6:26 am
125.50 08/22/2014 12:26:40 Aug 22 08:26 am Aug 22 5:26 am
131.00 08/22/2014 11:26:56 Aug 22 07:26 am Aug 22 4:26 am
131.00 08/22/2014 10:27:12 Aug 22 06:27 am Aug 22 3:27 am
131.00 08/22/2014 09:27:28 Aug 22 05:27 am Aug 22 2:27 am
131.00 08/22/2014 08:27:44 Aug 22 04:27 am Aug 22 1:27 am
131.00 08/22/2014 07:25:52 Aug 22 03:25 am Aug 22 12:25 am
131.00 08/22/2014 06:26:08 Aug 22 02:26 am Aug 21 11:26 pm
128.23 08/22/2014 05:26:24 Aug 22 01:26 am Aug 21 10:26 pm
131.00 08/22/2014 04:26:40 Aug 22 12:26 am Aug 21 9:26 pm
128.23 08/22/2014 01:27:28 Aug 21 09:27 pm Aug 21 6:27 pm
131.00 08/21/2014 23:25:52 Aug 21 07:25 pm Aug 21 4:25 pm
131.00 08/21/2014 22:26:08 Aug 21 06:26 pm Aug 21 3:26 pm
131.00 08/21/2014 21:26:24 Aug 21 05:26 pm Aug 21 2:26 pm
136.65 08/21/2014 20:26:40 Aug 21 04:26 pm Aug 21 1:26 pm
136.65 08/21/2014 19:26:56 Aug 21 03:26 pm Aug 21 12:26 pm
117.49 08/21/2014 18:27:12 Aug 21 02:27 pm Aug 21 11:27 am
131.00 08/21/2014 17:27:28 Aug 21 01:27 pm Aug 21 10:27 am
131.00 08/21/2014 16:27:44 Aug 21 12:27 pm Aug 21 9:27 am
131.00 08/21/2014 15:25:52 Aug 21 11:25 am Aug 21 8:25 am
131.00 08/21/2014 14:26:08 Aug 21 10:26 am Aug 21 7:26 am
131.00 08/21/2014 13:26:24 Aug 21 09:26 am Aug 21 6:26 am
131.00 08/21/2014 12:26:40 Aug 21 08:26 am Aug 21 5:26 am
131.00 08/21/2014 11:26:56 Aug 21 07:26 am Aug 21 4:26 am
131.00 08/21/2014 10:27:12 Aug 21 06:27 am Aug 21 3:27 am
131.00 08/21/2014 09:27:28 Aug 21 05:27 am Aug 21 2:27 am
131.00 08/21/2014 08:27:44 Aug 21 04:27 am Aug 21 1:27 am
131.00 08/21/2014 07:25:52 Aug 21 03:25 am Aug 21 12:25 am
131.00 08/21/2014 06:26:08 Aug 21 02:26 am Aug 20 11:26 pm
131.00 08/21/2014 05:26:24 Aug 21 01:26 am Aug 20 10:26 pm
131.00 08/21/2014 04:26:40 Aug 21 12:26 am Aug 20 9:26 pm
128.23 08/21/2014 02:27:12 Aug 20 10:27 pm Aug 20 7:27 pm
131.00 08/21/2014 01:27:28 Aug 20 09:27 pm Aug 20 6:27 pm
133.81 08/20/2014 23:25:52 Aug 20 07:25 pm Aug 20 4:25 pm
131.00 08/20/2014 22:26:08 Aug 20 06:26 pm Aug 20 3:26 pm
125.50 08/20/2014 21:26:24 Aug 20 05:26 pm Aug 20 2:26 pm
125.50 08/20/2014 20:26:40 Aug 20 04:26 pm Aug 20 1:26 pm
142.43 08/20/2014 19:26:56 Aug 20 03:26 pm Aug 20 12:26 pm
120.13 08/20/2014 18:27:12 Aug 20 02:27 pm Aug 20 11:27 am
120.13 08/20/2014 17:27:28 Aug 20 01:27 pm Aug 20 10:27 am
120.13 08/20/2014 16:27:44 Aug 20 12:27 pm Aug 20 9:27 am
120.13 08/20/2014 15:25:52 Aug 20 11:25 am Aug 20 8:25 am
120.13 08/20/2014 14:26:08 Aug 20 10:26 am Aug 20 7:26 am
122.79 08/20/2014 13:26:24 Aug 20 09:26 am Aug 20 6:26 am
195.13 08/20/2014 12:26:40 Aug 20 08:26 am Aug 20 5:26 am
228.51 08/20/2014 11:26:56 Aug 20 07:26 am Aug 20 4:26 am
228.51 08/20/2014 10:27:12 Aug 20 06:27 am Aug 20 3:27 am
228.51 08/20/2014 09:27:28 Aug 20 05:27 am Aug 20 2:27 am
225.11 08/20/2014 08:27:44 Aug 20 04:27 am Aug 20 1:27 am
225.11 08/20/2014 07:25:52 Aug 20 03:25 am Aug 20 12:25 am
228.51 08/20/2014 06:26:08 Aug 20 02:26 am Aug 19 11:26 pm
228.51 08/20/2014 05:26:24 Aug 20 01:26 am Aug 19 10:26 pm
225.11 08/20/2014 04:26:40 Aug 20 12:26 am Aug 19 9:26 pm
225.11 08/20/2014 01:27:28 Aug 19 09:27 pm Aug 19 6:27 pm
225.11 08/19/2014 23:25:52 Aug 19 07:25 pm Aug 19 4:25 pm

Report - Reports of Related Gauges

Reports give the public a chance to report on river conditions throughout the country as well as log the history of a river.

Reports

When River/Gauge Subject Level Reporter
5y100d11h45m Gauley at Summersville (cfs) [WV] Account of 05/26/09 245 cfs Ryan Groth

Linked Reaches

Click a heading to sort. Hover over a heading for help.
River Name/Section Class Level running? Updated
Gauley [WV] 7 (Upper). Summersville Dam to Mason Branch IV-V 137 cfs
0 cfs/hr
L8-
Below Recom.
01h15m
Gauley [WV] 9 (Lower). Bucklick Branch to Swiss III-IV(V) 299 cfs
+ 9 cfs/hr
L0-
Below Recom.
00h43m

Associated Gauges

Disclaimer Data Sources

GAULEY RIVER BELOW SUMMERSVILLE DAM, WV (AW#1434)

6.97 ft 01h13m